Location: Lac Lasalle
(46.0398°N, 74.1576°W)
Time: 01:23:00
(UTC-05:00)

AO-73 - Pass Details

Date: 19 December 2019
Orbit: 581 x 664 km, 97.6° (Epoch: 20 January)

Event Time Altitude Azimuth Distance (km) Brightness Sun altitude
Rises 18:15:26 0° 195° (SSW) 2,941 ? -20.2°
Reaches altitude 10° 18:17:57 10° 208° (SSW) 2,023 ? -20.7°
Maximum altitude 18:21:39 26° 265° (W) 1,238 ? -21.3°
Drops below altitude 10° 18:25:19 10° 323° (NW) 1,994 ? -21.9°
Sets 18:27:48 0° 336° (NNW) 2,890 ? -22.3°
